This is the latest recevied weather packets stored in our database for station/object LA5PPA-1. If no packets are shown the sender has not sent any weather packets the latest 10 day(s).
| Time | Temp. | Humidity | Pressure | Rain* | Wind** | Luminosity | Snow |
|---|---|---|---|---|---|---|---|
| 1777389433 | 8.89° C | 38% | 1033.1 hPa | 0 mm | - | - | - |
| 1777389194 | 9.44° C | 37% | 1033.2 hPa | 0 mm | - | - | - |
| 1777389133 | 9.44° C | 38% | 1033.1 hPa | 0 mm | - | - | - |
| 1777388833 | 9.44° C | 39% | 1033.2 hPa | 0 mm | - | - | - |
| 1777388533 | 9.44° C | 37% | 1033.2 hPa | 0 mm | - | - | - |
| 1777388233 | 9.44° C | 37% | 1033.2 hPa | 0 mm | - | - | - |
| 1777387933 | 9.44° C | 36% | 1033.2 hPa | 0 mm | - | - | - |
| 1777387874 | 10° C | 37% | 1033.3 hPa | 0 mm | - | - | - |
| 1777387633 | 10° C | 35% | 1033.3 hPa | 0 mm | - | - | - |
| 1777387333 | 10° C | 37% | 1033.2 hPa | 0 mm | - | - | - |
| 1777387214 | 10° C | 35% | 1033.3 hPa | 0 mm | - | - | - |
| 1777387033 | 10° C | 36% | 1033.3 hPa | 0 mm | - | - | - |
| 1777386733 | 10° C | 38% | 1033.2 hPa | 0 mm | - | - | - |
| 1777386554 | 9.44° C | 35% | 1033.3 hPa | 0 mm | - | - | - |
| 1777386433 | 9.44° C | 37% | 1033.4 hPa | 0 mm | - | - | - |
| 1777386133 | 10° C | 36% | 1033.4 hPa | 0 mm | - | - | - |
| 1777385894 | 10° C | 37% | 1033.5 hPa | 0 mm | - | - | - |
| 1777385833 | 10° C | 35% | 1033.5 hPa | 0 mm | - | - | - |
| 1777385533 | 10° C | 37% | 1033.5 hPa | 0 mm | - | - | - |
| 1777385233 | 10° C | 35% | 1033.5 hPa | 0 mm | - | - | - |
| 1777384933 | 9.44° C | 37% | 1033.5 hPa | 0 mm | - | - | - |
| 1777384633 | 8.89° C | 37% | 1033.8 hPa | 0 mm | - | - | - |
| 1777384574 | 8.89° C | 37% | 1033.8 hPa | 0 mm | - | - | - |
| 1777384333 | 8.89° C | 36% | 1033.8 hPa | 0 mm | - | - | - |
| 1777384033 | 9.44° C | 37% | 1033.8 hPa | 0 mm | - | - | - |
* Rain latest hour (hover to see other rain measurements)
** Current wind speed in m/s (hover to see current wind gust speed)